Regional Weather Roundup
Issued by NWS

Home | Current Version | Previous Version | Graphics & Text | Print | Product List | Glossary Off
Versions: 1 2 3 4 5 6 7 8 9 10 11 12 13 14 15 16 17 18 19 20 21 22 23 24 25 26 27 28 29 30 31 32 33 34 35 36 37 38 39 40 41 42 43 44 45 46 47 48 49 50

000
ASUS45 KBOU 280907
RWRCO

WEATHER ROUNDUP FOR COLORADO
NATIONAL WEATHER SERVICE DENVER/BOULDER CO
300 AM MDT THU AUG 28 2014

NOTE: "FAIR" INDICATES FEW OR NO CLOUDS BELOW 12000 FEET WITH NO
SIGNIFICANT WEATHER AND/OR OBSTRUCTIONS TO VISIBILITY.

COZ001>005-013-030-031-281000-
...NORTHWEST COLORADO...

CITY           SKY/WX    TMP DP  RH WIND       PRES   REMARKS
CRAIG          LGT RAIN  53  50  89 SW5       30.28S
HAYDEN         CLOUDY    50  46  87 W8        30.28S
MEEKER         CLOUDY    52  50  93 SW6       30.29F
MOUNT WERNER   NOT AVBL
STEAMBOAT SPGS CLOUDY    49  48  97 CALM      30.29S
WALDEN         CLOUDY    46  43  87 SW3       30.31F
$$

COZ006>008-011-281000-
...WEST CENTRAL VALLEYS...

CITY           SKY/WX    TMP DP  RH WIND       PRES   REMARKS
GRAND JUNCTION CLOUDY    57  56  96 CALM      30.24S
MONTROSE       LGT RAIN  54  50  86 E6        30.31R
EAGLE          CLOUDY    52  48  87 NE3       30.31S
RIFLE          LGT RAIN  55  52  89 CALM      30.27R
DELTA          RAIN      57  53  87 N5        30.26S
NUCLA          NOT AVBL
$$

COZ017>023-064>068-281000-
...SOUTHWEST COLORADO...

CITY           SKY/WX    TMP DP  RH WIND       PRES   REMARKS
DURANGO        CLEAR     45  42  89 N3        30.31S
CORTEZ         CLEAR     46  45  96 E3        30.30S
PAGOSA SPRINGS CLEAR     44  40  85 CALM      30.36S
TELLURIDE      CLOUDY    45  43  93 SE3       30.43S
WOLF CREEK PAS PTCLDY    32  32 100 SW12      30.53F WCI  23
$$

COZ009-010-012-014-032>034-037-058>063-281000-
...CENTRAL COLORADO...

CITY           SKY/WX    TMP DP  RH WIND       PRES   REMARKS
ASPEN          LGT RAIN  49  46  90 CALM      30.33F
BUENA VISTA    MOCLDY    50  38  63 NW5       30.31F
COPPER MTN     SNOW      37  34  87 W16       30.50S VSB<1/4
BERTHOUD PASS  SNOW      32  30  93 NW22      30.50F VSB<1/4 WCI  19
COTTONWOOD PAS CLOUDY    48  34  57 W14G21    30.39S
GUNNISON       CLOUDY    50  39  66 CALM      30.35F
KREMMLING      CLOUDY    50  43  76 CALM      30.32S
LEADVILLE      CLOUDY    40  38  93 N5        30.40S
MONARCH PASS   FOG       34  32  93 W31       30.58F VSB<1/4 WCI  20
SALIDA         MOCLDY    52  40  63 NW6       30.36R
SUNLIGHT       LGT RAIN  41  41 100 CALM      30.47S VSB 3/4
WILKERSON PASS NOT AVBL
$$

COZ069>075-281000-
...SAN LUIS VALLEY/SANGRE DE CRISTO MOUNTAINS...

CITY           SKY/WX    TMP DP  RH WIND       PRES   REMARKS
ALAMOSA        CLEAR     40  37  89 SW3       30.32S
LA VETA PASS   NOT AVBL
SAGUACHE       MOCLDY    46  39  76 NW8       30.35S
$$

COZ035-036-038>040-281000-
...NORTHERN COLORADO FRONT RANGE...

CITY           SKY/WX    TMP DP  RH WIND       PRES   REMARKS
DENVER INTL AP PTCLDY    56  51  84 S9        30.15S
DMNS CITY PARK   N/A     54  50  86 SW2       30.15S
AURORA         PTCLDY    53  51  94 S8        30.17F
FRONT RANGE AP CLEAR     55  52  88 SW8       30.16F
ERIE MUNI ARPT CLEAR     54  51  92 CALM      30.13F
BOULDER MUN AP CLEAR     55  48  76 SW5       30.13F
CENTENNIAL     PTCLDY    51  47  86 S5        30.18S
BROOMFIELD     CLEAR     54  50  87 SW5       30.16F
FORT COLLINS   CLEAR     55  52  88 CALM      30.14F
LONGMONT       CLEAR     55  51  89 S5        30.15S
$$

COZ041-046-047-076>085-087-088-281000-
...PIKES PEAK/PALMER DIVIDE AND SOUTHERN FOOTHILLS...

CITY           SKY/WX    TMP DP  RH WIND       PRES   REMARKS
COLO. SPRINGS  CLEAR     54  48  80 W5        30.20S
A. F. ACADEMY  CLEAR     49  45  88 N9        30.21F
ELLICOTT       CLEAR     50  49  96 N7        30.18R
FALCON         CLEAR     51  48  90 N8        30.23S
FORT CARSON    CLEAR     53  48  85 N8        30.18R
LIMON          PTCLDY    54  53  97 W3        30.13F
MONUMENT HILL  CLEAR     45  43  93 CALM      30.23S
TRINIDAD       CLEAR     55  42  61 W3        30.19S
$$

COZ042>045-048>051-090-091-281000-
...NORTHEAST COLORADO...

CITY           SKY/WX    TMP DP  RH WIND       PRES   REMARKS
GREELEY ARPT   CLEAR     55  48  76 CALM      30.13S
AKRON          CLOUDY    58  56  93 NW9       30.06F
BURLINGTON     MOCLDY    59  57  93 NE13      30.04F
WRAY             N/A    N/A N/A N/A E5        30.01F
STERLING       CLOUDY    64  63  94 NW9       30.04F
HOLYOKE        CLOUDY    61  59  94 SE3       30.00F
FORT MORGAN    CLOUDY    57  55  92 W8        30.09F
$$

COZ086-089-092>099-281000-
...SOUTHEAST COLORADO...

CITY           SKY/WX    TMP DP  RH WIND       PRES   REMARKS
PUEBLO         CLEAR     60  50  69 CALM      30.13R
LA JUNTA       PTCLDY    62  57  83 NW7       30.08R
LAMAR          PTCLDY    65  57  75 N7        30.01R
SPRINGFIELD      N/A     62  57  83 NW17G23   30.05R
$$


USA.gov is the U.S. government's official web portal to all federal, state and local government web resources and services.